Location: Bruch
(44.2051°N, 0.4120°E)
Time: 11:41:56
(UTC+00:00)

Cosmos 1898 Rocket - Pass Details

Date: 29 November 2020
Orbit: 754 x 783 km, 74.0° (Epoch: 25 January)

Event Time Altitude Azimuth Distance (km) Brightness Sun altitude
Rises 04:44:04 0° 184° (S) 3,241 6.8 -25.9°
Reaches altitude 10° 04:46:28 10° 179° (S) 2,322 6.0 -25.4°
Maximum altitude 04:51:34 51° 105° (ESE) 976 4.3 -24.5°
Drops below altitude 10° 04:56:44 10° 30° (NNE) 2,347 6.3 -23.6°
Sets 04:59:11 0° 26° (NNE) 3,281 7.0 -23.2°
